User: anonymous   Login
Location: Unspecified
(0.0000°N, 0.0000°E)
Time: 17:02:40
(UTC+00:00)
Language:

TMSAT-1 - Orbit

View from above orbital plane
View from above orbital plane
View from above satellite
View from above satellite

Ground track
Ground track

The orbit data is extracted from the following two-line orbital elements,

1 25396U 98043C   18142.91957151 +.00000010 +00000-0 +22950-4 0  9996
2 25396 098.6243 084.9529 0003754 066.9008 293.2567 14.24481336032289
Epoch (UTC): 22 May 2018 22:04:10
Eccentricity: 0.0003754
inclination: 98.6243°
perigee height: 807 km
apogee height: 813 km
right ascension of ascending node: 84.9529°
argument of perigee: 66.9008°
revolutions per day: 14.24481336
mean anomaly at epoch: 293.2567°
orbit number at epoch: 3228

The dashed part of the orbit path shows where the satellite is in the earth's shadow,  

DLR